Home   Weather   Aurillac   Past weeks

Flag for France Past Weather in Aurillac, Auvergne, France — Yesterday and Last 2 Weeks

Now
44 °F

Quite cool.


Feels Like: 40 °F
Forecast: 35 / 54 °F
Wind: 7 mph from Southeast

Location: Aurillac

Current Time: Dec 5, 2016 at 9:38:13 am

Latest Report: Dec 5, 2016 at 8:00 am


Visibility: 31 mi

Pressure: 30.21 "Hg (27.99 "Hg at 627m altitude)

Humidity: 74%

Dew Point: 36 °F

Location of AurillacLocation

Past Weather in Aurillac — Graph

°F

Aurillac Temperature Yesterday

Maximum temperature yesterday: 54 °F (at 1:00 pm)
Minimum temperature yesterday: 41 °F (at 12:00 am)
Average temperature yesterday: 48 °F

High & Low Weather Summary for the Past Weeks

 TemperatureHumidityPressure
High60 °F (Nov 23, 1:00 pm)98% (Nov 22, 6:00 pm)30.55 "Hg (Nov 22, 6:00 pm)
Low25 °F (Dec 1, 8:00 am)28% (Dec 2, 3:00 pm)29.41 "Hg (Nov 21, 6:00 am)
Average45 °F76%29.98 "Hg
* Reported Nov 20 8:00 am — Dec 5 8:00 am, Aurillac, Weather by CustomWeather, © 2016

Note: Actual official high and low records may vary slightly from our data, if they occured in-between our weather recording intervals... More about our weather records

Advertising

Aurillac Weather History for the Previous 24 Hours

Scroll right to see more
 ConditionsComfort  
Time TempWeatherWind HumidityBarometerVisibility
8:00 am
Mon, Dec 5
44 °FQuite cool.7 mph74%30.21 "Hg31 mi
7:00 am45 °FCool.8 mph73%30.19 "Hg37 mi
6:00 am47 °FCool.10 mph72%30.18 "Hg34 mi
5:00 am47 °FCool.8 mph74%30.17 "Hg34 mi
4:00 am48 °FOvercast.7 mph76%30.16 "Hg31 mi
3:00 am48 °FOvercast.9 mph77%30.15 "Hg28 mi
2:00 am49 °FOvercast.14 mph76%30.13 "Hg25 mi
1:00 am48 °FCool.15 mph75%30.13 "Hg25 mi
12:00 am48 °FCool.14 mph75%30.14 "Hg34 mi
11:00 pm
Sun, Dec 4
49 °FCool.15 mph75%30.12 "Hg34 mi
10:00 pm49 °FCool.14 mph76%30.11 "Hg37 mi
9:00 pm49 °FCool.15 mph76%30.11 "Hg37 mi
8:00 pm50 °FOvercast.15 mph74%30.09 "Hg37 mi
7:00 pm50 °FOvercast.16 mph73%30.09 "Hg37 mi
6:00 pm50 °FOvercast.15 mph72%30.06 "Hg37 mi
5:00 pm51 °FOvercast.15 mph72%30.05 "Hg37 mi
4:00 pm52 °FOvercast.13 mph69%30.03 "Hg34 mi
3:00 pm52 °FOvercast.13 mph68%30.03 "Hg34 mi
2:00 pm54 °FOvercast.13 mph66%30.02 "Hg17 mi
1:00 pm54 °FOvercast.17 mph64%30.03 "Hg17 mi
12:00 pm52 °FOvercast.17 mph66%30.04 "Hg19 mi
11:00 am51 °FOvercast.17 mph67%30.05 "Hg12 mi
9:00 am46 °FCool.15 mph74%30.05 "Hg9 mi
Weather by CustomWeather, © 2016

See weather overviewHow to use our weather pages